Location: Diguira
(13.1838°N, 4.9109°W)
Time: 15:15:16
(UTC+00:00)

Feng Yun 1-1 Rocket - Pass Details

Date: 18 September 2020
Orbit: 830 x 933 km, 99.2° (Epoch: 19 October)

Event Time Altitude Azimuth Distance (km) Brightness Sun altitude
Rises 18:26:43 0° 160° (SSE) 3,362 7.1 -2.9°
Reaches altitude 10° 18:29:04 10° 157° (SSE) 2,431 6.4 -3.4°
Maximum altitude 18:34:23 65° 76° (ENE) 916 4.2 -4.7°
Drops below altitude 10° 18:39:46 10° 355° (N) 2,467 6.7 -6.0°
Sets 18:42:10 0° 353° (N) 3,415 7.5 -6.6°
